Regional Weather Roundup
Issued by NWS

Home | Current Version | Previous Version | Graphics & Text | Print | Product List | Glossary On
Versions: 1 2 3 4 5 6 7 8 9 10 11 12 13 14 15 16 17 18 19 20 21 22 23 24 25 26 27 28 29 30 31 32 33 34 35 36 37 38 39 40 41 42 43 44 45 46 47 48 49 50
000
ASUS43 KLMK 261710
RWRKY
KENTUCKY REGIONAL WEATHER ROUNDUP
NATIONAL WEATHER SERVICE LOUISVILLE KY
100 PM EDT WED APR 26 2017

NOTE "FAIR" INDICATES FEW OR NO CLOUDS BELOW 12,000 FEET
WITH NO SIGNIFICANT WEATHER AND/OR OBSTRUCTIONS TO VISIBILITY.

KYZ001>023-026-027-061>063-070>075-261800-
WESTERN AND SOUTH CENTRAL KENTUCKY

CITY           SKY/WX    TMP DP  RH WIND       PRES   REMARKS
PADUCAH        MOSUNNY   80  63  55 S12G22    29.61R
HENDERSON      SUNNY     79  64  60 S20       29.61S
OWENSBORO      SUNNY     79  65  62 S20       29.62F
HOPKINSVILLE   MOSUNNY   78  62  58 S13G21    29.67S
BOWLING GREEN  SUNNY     79  62  56 S14       29.69S
GLASGOW        SUNNY     77  58  51 S14       29.69F
$$

KYZ024-025-028>034-038-045-046-053-261800-
NORTH CENTRAL KENTUCKY

CITY           SKY/WX    TMP DP  RH WIND       PRES   REMARKS
LOUISVILLE/SDF PTSUNNY   80  62  54 S14       29.66F
LOUISVILLE/LOU SUNNY     78  63  59 S10G20    29.67F
FORT KNOX      PTSUNNY   76  62  62 S13G20    29.66S
$$

KYZ035>037-039>044-047>052-055>060-089>105-261800-
NORTHEAST KENTUCKY

CITY           SKY/WX    TMP DP  RH WIND       PRES   REMARKS
LEXINGTON      CLOUDY    77  58  51 S17G24    29.71F
COVINGTON      CLOUDY    77  60  55 S18G25    29.66F
FRANKFORT      CLOUDY    78  58  49 S10G18    29.69F
$$

KYZ054-064>069-076>088-106>120-261800-
SOUTHEAST KENTUCKY

CITY           SKY/WX    TMP DP  RH WIND       PRES   REMARKS
JACKSON        SUNNY     78  57  48 VRB6      29.79F
LONDON         SUNNY     76  53  44 VRB7      29.78F
SOMERSET       CLOUDY    73  54  49 S6        29.76F
MIDDLESBORO    SUNNY     75  57  54 S6        29.81F
MONTICELLO     SUNNY     77  59  53 VRB5      29.77F
$$





USA.gov is the U.S. government's official web portal to all federal, state and local government web resources and services.